カタログに戻る

COSMOS 1823 DEB

LostLEO
NORAD 39829·DEBRIS·🇷🇺 Russia

打ち上げ Feb 20, 1987 から Plesetsk Cosmodrome

Loading…

次のパス (今後24時間)

TLE

古いSource: Space-Track

元期: Jan 6, 2026, 22:54 UTC

1 39829U 87020FD  26006.95453001  .00000112  00000-0  93680-3 0  9992
2 39829  73.5990 245.1536 0027131 101.7285 258.6805 12.42419300 20855

AllMySatでCOSMOS 1823 DEBをリアルタイム追跡

Download on the App Store